Location: Monteux
(44.0348°N, 4.9972°E)
Time: 17:31:33
(UTC+00:00)

ERS-2 - Pass Details

Date: 30 November 2020
Orbit: 492 x 497 km, 98.6° (Epoch: 17 January)

Event Time Altitude Azimuth Distance (km) Brightness Sun altitude
Exits shadow 16:58:06 - 36° (NE) 1,772 4.4 -9.7°
Reaches altitude 10° 16:58:17 10° 37° (NE) 1,709 4.3 -9.7°
Maximum altitude 17:01:28 28° 97° (E) 972 3.1 -10.3°
Drops below altitude 10° 17:04:38 10° 158° (SSE) 1,696 4.8 -10.8°
Sets 17:06:55 0° 170° (S) 2,573 5.9 -11.2°
